Date String (YYYY-MM-DD hh:mm:ss) UTC,Instrument flags,absolute air pressure of the measurement (hPa),sample flow rate (lpm),inlet stack bypass flow (lpm),air temperature of the measurement (°C),ambient temperature measured by the external sensor (°C),aerosol sample conditioner tube jacket temperature (°C),OPC LED temperature (°C),internal box temperature (°C),relative humidity of the measurement (%),span deviation,mass concentration of particles derived from Lorenz-Mie calculation of OPC scattering (μg/m³),mass concentration of particles derived from Lorenz-Mie calculation of OPC scattering (μg/m³),mass concentration of particles derived from Lorenz-Mie calculation of OPC scattering (μg/m³)
DateTimeUTC,F1_M11,P_M11,Q1_M11,Q2_M11,T1_M11,T2_M11,T3_M11,T4_M11,T5_M11,U1_M11,ZSPAN_M11,X2_M11,X0_M11,X1_M11
2024-02-13 02:00:00,SystemResetWarning,0825.4,5.00,000.00,021.4,020.8,000.0,029.8,023.2,13.5,0000.0,0001.36,0002.68,0001.07
2024-02-13 02:01:00,SystemResetWarning,0825.4,5.00,000.00,021.4,020.8,000.0,029.8,023.2,13.5,0000.0,0001.34,0003.51,0001.03
2024-02-13 02:02:00,SystemResetWarning,0825.4,5.01,000.00,021.4,020.8,000.0,029.8,023.2,13.5,0000.0,0001.33,0004.06,0001.00
2024-02-13 02:03:00,SystemResetWarning,0825.4,5.00,000.00,021.4,020.8,000.0,029.8,023.2,13.3,0000.0,0001.32,0004.06,0000.97
2024-02-13 02:04:00,SystemResetWarning,0825.4,4.99,000.00,021.4,020.8,000.0,029.8,023.2,13.1,0000.0,0001.28,0004.02,0000.93
2024-02-13 02:05:00,SystemResetWarning,0825.4,4.99,000.00,021.4,020.8,000.0,029.8,023.2,12.8,0000.0,0001.18,0003.85,0000.88
2024-02-13 02:06:00,SystemResetWarning,0825.4,5.00,000.00,021.4,020.8,000.0,029.8,023.2,13.0,0000.0,0001.05,0003.60,0000.81
2024-02-13 02:07:00,SystemResetWarning,0825.4,5.02,000.00,021.4,020.8,000.0,029.8,023.2,12.9,0000.0,0000.94,0002.72,0000.73
2024-02-13 02:08:00,SystemResetWarning,0825.4,5.01,000.00,021.4,020.8,000.0,029.8,023.1,12.7,0000.0,0000.82,0002.55,0000.66
2024-02-13 02:09:00,SystemResetWarning,0825.4,5.00,000.00,021.4,020.8,000.0,029.8,023.1,12.7,0000.0,0000.78,0002.51,0000.62
2024-02-13 02:10:00,SystemResetWarning,0825.4,5.00,000.00,021.4,020.8,000.0,029.8,023.1,12.5,0000.0,0000.76,0002.47,0000.59
2024-02-13 02:11:00,SystemResetWarning,0825.4,5.00,000.00,021.4,020.8,000.0,029.8,023.1,12.7,0000.0,0000.71,0002.34,0000.57
2024-02-13 02:12:00,SystemResetWarning,0825.4,5.00,000.00,021.4,020.8,000.0,029.8,023.1,12.7,0000.0,0000.68,0001.90,0000.55
2024-02-13 02:13:00,SystemResetWarning,0825.4,4.99,000.00,021.4,020.8,000.0,029.7,023.1,12.8,0000.0,0000.63,0000.87,0000.53
2024-02-13 02:14:00,SystemResetWarning,0825.4,5.00,000.00,021.4,020.8,000.0,029.8,023.1,12.7,0000.0,0000.61,0000.89,0000.51
2024-02-13 02:15:00,SystemResetWarning,0825.4,5.00,000.00,021.4,020.8,000.0,029.8,023.1,12.8,0000.0,0000.63,0001.17,0000.51
2024-02-13 02:16:00,SystemResetWarning,0825.4,5.01,000.00,021.4,020.8,000.0,029.8,023.2,13.0,0000.0,0000.64,0001.75,0000.52
2024-02-13 02:17:00,SystemResetWarning,0825.4,5.00,000.00,021.4,020.8,000.0,029.8,023.2,12.9,0000.0,0000.65,0001.75,0000.53
2024-02-13 02:18:00,SystemResetWarning,0825.4,4.99,000.00,021.4,020.8,000.0,029.7,023.1,12.7,0000.0,0000.66,0001.80,0000.53
2024-02-13 02:19:00,SystemResetWarning,0825.4,5.00,000.00,021.4,020.8,000.0,029.7,023.1,12.4,0000.0,0000.66,0001.82,0000.53
2024-02-13 02:20:00,SystemResetWarning,0825.3,5.00,000.00,021.3,020.8,000.0,029.7,023.1,12.7,0000.0,0000.65,0001.83,0000.52
2024-02-13 02:21:00,SystemResetWarning,0825.3,5.02,000.00,021.3,020.8,000.0,029.7,023.1,12.7,0000.0,0000.66,0001.98,0000.52
2024-02-13 02:22:00,SystemResetWarning,0825.2,5.00,000.00,021.3,020.7,000.0,029.7,023.1,12.6,0000.0,0000.68,0002.03,0000.52
2024-02-13 02:23:00,SystemResetWarning,0825.3,5.00,000.00,021.3,020.7,000.0,029.7,023.1,12.6,0000.0,0000.68,0002.04,0000.52
2024-02-13 02:24:00,SystemResetWarning,0825.3,5.00,000.00,021.3,020.6,000.0,029.7,023.1,12.5,0000.0,0000.70,0002.08,0000.52
2024-02-13 02:25:00,SystemResetWarning,0825.2,4.99,000.00,021.3,020.6,000.0,029.7,023.0,12.7,0000.0,0000.74,0002.24,0000.53
2024-02-13 02:26:00,SystemResetWarning,0825.3,4.99,000.00,021.3,020.6,000.0,029.7,023.0,12.3,0000.0,0000.74,0002.09,0000.53
2024-02-13 02:27:00,SystemResetWarning,0825.3,5.00,000.00,021.3,020.6,000.0,029.7,023.0,12.6,0000.0,0000.73,0001.48,0000.54
2024-02-13 02:28:00,SystemResetWarning,0825.2,5.01,000.00,021.3,020.6,000.0,029.7,023.0,12.8,0000.0,0000.74,0001.37,0000.55
2024-02-13 02:29:00,SystemResetWarning,0825.2,5.01,000.00,021.3,020.6,000.0,029.7,023.0,12.6,0000.0,0000.77,0001.44,0000.57
2024-02-13 02:30:00,SystemResetWarning,0825.3,5.00,000.00,021.2,020.6,000.0,029.7,023.0,12.9,0000.0,0000.77,0001.43,0000.57
2024-02-13 02:31:00,SystemResetWarning,0825.2,5.01,000.00,021.2,020.5,000.0,029.6,023.0,12.8,0000.0,0000.81,0001.59,0000.58
2024-02-13 02:32:00,SystemResetWarning,0825.2,4.99,000.00,021.2,020.5,000.0,029.6,023.0,12.8,0000.0,0000.82,0001.49,0000.59
2024-02-13 02:33:00,SystemResetWarning,0825.2,4.99,000.00,021.2,020.5,000.0,029.6,022.9,12.7,0000.0,0000.83,0001.51,0000.60
2024-02-13 02:34:00,SystemResetWarning,0825.3,5.01,000.00,021.2,020.4,000.0,029.6,022.9,13.0,0000.0,0000.85,0001.56,0000.61
2024-02-13 02:35:00,SystemResetWarning,0825.3,5.00,000.00,021.2,020.4,000.0,029.6,022.9,13.0,0000.0,0000.84,0001.52,0000.61
2024-02-13 02:36:00,SystemResetWarning,0825.2,5.01,000.00,021.2,020.4,000.0,029.6,022.9,12.9,0000.0,0000.85,0001.49,0000.62
2024-02-13 02:37:00,SystemResetWarning,0825.2,5.00,000.00,021.2,020.4,000.0,029.6,022.9,12.9,0000.0,0000.86,0001.53,0000.63
2024-02-13 02:38:00,SystemResetWarning,0825.3,5.00,000.00,021.1,020.4,000.0,029.6,022.9,12.9,0000.0,0000.88,0001.62,0000.64
2024-02-13 02:39:00,SystemResetWarning,0825.2,5.01,000.00,021.1,020.3,000.0,029.5,022.9,13.0,0000.0,0000.91,0001.68,0000.65
2024-02-13 02:40:00,SystemResetWarning,0825.3,5.01,000.00,021.1,020.3,000.0,029.5,022.9,13.0,0000.0,0000.91,0001.66,0000.65
2024-02-13 02:41:00,SystemResetWarning,0825.3,5.00,000.00,021.1,020.3,000.0,029.5,022.8,12.9,0000.0,0000.94,0001.69,0000.66
2024-02-13 02:42:00,SystemResetWarning,0825.3,5.00,000.00,021.1,020.3,000.0,029.5,022.8,12.9,0000.0,0000.97,0001.61,0000.67
2024-02-13 02:43:00,SystemResetWarning,0825.3,4.99,000.00,021.1,020.3,000.0,029.5,022.8,13.0,0000.0,0000.99,0001.66,0000.67
2024-02-13 02:44:00,SystemResetWarning,0825.3,5.00,000.00,021.1,020.3,000.0,029.5,022.8,12.9,0000.0,0000.99,0001.65,0000.67
2024-02-13 02:45:00,SystemResetWarning,0825.3,4.99,000.00,021.1,020.3,000.0,029.5,022.8,12.9,0000.0,0000.99,0002.10,0000.68
2024-02-13 02:46:00,SystemResetWarning,0825.3,5.00,000.00,021.0,020.3,000.0,029.5,022.8,13.1,0000.0,0000.99,0002.91,0000.69
2024-02-13 02:47:00,SystemResetWarning,0825.3,5.00,000.00,021.0,020.3,000.0,029.4,022.7,13.0,0000.0,0000.97,0004.46,0000.69
2024-02-13 02:48:00,SystemResetWarning,0825.2,5.01,000.00,021.0,020.3,000.0,029.4,022.7,13.0,0000.0,0000.98,0004.80,0000.70
2024-02-13 02:49:00,SystemResetWarning,0825.2,5.00,000.00,021.0,020.3,000.0,029.4,022.7,12.9,0000.0,0000.98,0004.75,0000.70
2024-02-13 02:50:00,SystemResetWarning,0825.2,5.01,000.00,021.0,020.3,000.0,029.4,022.7,12.7,0000.0,0001.00,0004.79,0000.71
2024-02-13 02:51:00,SystemResetWarning,0825.2,5.00,000.00,021.0,020.3,000.0,029.4,022.7,12.8,0000.0,0000.98,0004.75,0000.71
2024-02-13 02:52:00,SystemResetWarning,0825.3,4.99,000.00,021.0,020.2,000.0,029.4,022.7,12.9,0000.0,0000.97,0004.72,0000.72
2024-02-13 02:53:00,SystemResetWarning,0825.2,5.00,000.00,021.0,020.2,000.0,029.4,022.6,13.1,0000.0,0000.94,0004.66,0000.73
2024-02-13 02:54:00,SystemResetWarning,0825.3,5.00,000.00,020.9,020.2,000.0,029.3,022.6,12.9,0000.0,0000.89,0004.56,0000.74
2024-02-13 02:55:00,SystemResetWarning,0825.3,5.01,000.00,020.9,020.2,000.0,029.3,022.6,12.9,0000.0,0000.87,0006.48,0000.74
2024-02-13 02:56:00,SystemResetWarning,0825.2,5.01,000.00,020.9,020.2,000.0,029.3,022.6,12.8,0000.0,0000.89,0007.26,0000.74
2024-02-13 02:57:00,SystemResetWarning,0825.3,4.99,000.00,020.9,020.2,000.0,029.3,022.6,12.9,0000.0,0000.90,0006.51,0000.74
2024-02-13 02:58:00,SystemResetWarning,0825.3,4.99,000.00,020.9,020.2,000.0,029.3,022.6,13.0,0000.0,0000.92,0005.48,0000.75
2024-02-13 02:59:00,SystemResetWarning,0825.2,5.00,000.00,020.9,020.2,000.0,029.3,022.6,13.1,0000.0,0000.93,0004.57,0000.75
